Flag for U.S.A. Weather past 2 weeks in Nashville, Tennessee, U.S.A.

Now
71 °F

Passing clouds.


Feels Like: 71 °F
Forecast: 70 / 85 °F
Wind: 3 mph from South

Location: Nashville International Airport

Current Time: Aug 30, 2014 at 5:49:37 AM

Latest Report: Aug 30, 2014 at 4:53 AM


Visibility: 10 mi

Pressure: 30.03 "Hg

Humidity: 81%

Dew point: 65 °F

Location of NashvilleLocation

Historic Weather in Nashville — Graph

°F

Nashville temperature yesterday

Maximum temperature yesterday: 93 °F (at 12:53 PM)
Minimum temperature yesterday: 71 °F (at 5:53 AM)
Average temperature yesterday: 81 °F

Past Weeks' High & Low Weather Summary

 TemperatureHumidityPressure
High95 °F (Aug 23, 3:53 PM)97% (Aug 20, 9:53 PM)30.15 "Hg (Aug 20, 9:53 PM)
Low63 °F (Aug 15, 5:53 AM)28% (Aug 29, 1:53 PM)29.82 "Hg (Aug 18, 4:53 PM)
Average80 °F74%29.99 "Hg
* Reported Aug 15 4:53 AM — Aug 30 4:53 AM, Nashville, Weather by CustomWeather, © 2014

Note: Actual official high and low records may vary slightly from our data, if they occured in-between our weather recording intervals... More about our weather records

Advertising

Nashville weather history for previous 24 hours

 ConditionsComfort  
Time TempWeatherWind HumidityBarometerVisibility
4:53 AM
Aug 30
71 °FPassing clouds.3 mph81%30.03 "Hg10 mi
3:53 AM71 °FPassing clouds.5 mph81%30.03 "Hg10 mi
2:53 AM71 °FPassing clouds.5 mph81%30.02 "Hg10 mi
1:53 AM73 °FPassing clouds.6 mph74%30.03 "Hg10 mi
12:53 AM72 °FPassing clouds.3 mph78%30.04 "Hg10 mi
11:53 PM
Aug 29
73 °FPassing clouds.3 mph76%30.03 "Hg10 mi
10:53 PM76 °FPassing clouds.No wind67%30.02 "Hg10 mi
9:53 PM77 °FClear.No wind62%30.01 "Hg10 mi
8:53 PM79 °FPassing clouds.5 mph56%29.99 "Hg10 mi
7:53 PM83 °FPassing clouds.5 mph48%29.98 "Hg10 mi
6:53 PM87 °FScattered clouds.9 mph40%29.98 "Hg10 mi
5:53 PM89 °FPartly sunny.13 mph34%29.97 "Hg10 mi
4:53 PM91 °FPartly sunny.12 mph34%29.97 "Hg10 mi
3:53 PM92 °FBroken clouds.9 mph35%29.98 "Hg10 mi
1:53 PM93 °FBroken clouds.16 mph28%29.99 "Hg10 mi
12:53 PM93 °FBroken clouds.14 mph29%30.01 "Hg10 mi
11:53 AM92 °FScattered clouds.8 mph31%30.01 "Hg10 mi
10:53 AM90 °FScattered clouds.13 mph39%30.02 "Hg10 mi
9:53 AM86 °FScattered clouds.8 mph48%30.03 "Hg10 mi
8:53 AM79 °FScattered clouds.7 mph65%30.03 "Hg10 mi
7:53 AM76 °FScattered clouds.5 mph82%30.02 "Hg10 mi
6:53 AM72 °FScattered clouds.3 mph91%30.01 "Hg7 mi
5:53 AM71 °FPassing clouds.5 mph96%29.99 "Hg8 mi
Weather by CustomWeather, © 2014

See weather overviewHow to use our weather pages